Location: Unspecified
(0.0000°N, 0.0000°E)
Time: 02:32:08
(UTC+02:00)

SeaSat 1 - Visible Passes

Search period start: 28 April 2015 00:00
Search period end: 08 May 2015 00:00
Orbit: 746 x 749 km, 108.0° (Epoch: 26 April)

Date Brightness Start Highest point End Pass type
(mag) Time Alt. Az. Time Alt. Az. Time Alt. Az.
28 Apr 4.4 06:00:28 10° ENE 06:04:23 25° ESE 06:08:27 10° SSE visible
29 Apr 2.4 06:55:14 10° NNE 07:00:08 77° WNW 07:05:04 10° SSW visible
30 Apr 4.2 06:14:20 10° NE 06:18:29 29° ESE 06:22:45 10° S visible
01 May 2.4 07:09:22 10° NNE 07:14:14 66° WNW 07:19:07 10° SSW visible
02 May 4.0 06:28:14 10° NE 06:32:35 33° ESE 06:37:01 10° S visible
03 May 2.6 07:23:30 10° N 07:28:19 57° WNW 07:33:08 10° SSW visible
04 May 3.8 06:42:09 10° NE 06:46:41 38° ESE 06:51:15 10° S visible
05 May 5.4 06:04:21 10° ESE 06:04:56 10° ESE 06:05:56 10° ESE visible
06 May 3.5 06:56:06 10° NE 07:00:45 44° ESE 07:05:27 10° S visible
07 May 5.2 06:17:14 10° E 06:19:01 12° ESE 06:21:10 10° SE visible
07 May 5.0 20:20:41 10° SSW 20:24:25 21° WSW 20:27:58 10° WNW visible
